Weather History for Wright-Patt AFB, OH

Change the Weather History Date:

Tuesday, August 6, 2013

  Actual Average Record
Temperature  
Mean Temperature 71 °F -  
Max Temperature 81 °F 81 °F 94 °F (2007)
Min Temperature 61 °F 61 °F 50 °F (2004)
Cooling Degree Days 6    
Growing Degree Days 21 (Base 50)    
Moisture  
Dew Point 62 °F    
Average Humidity 70    
Maximum Humidity 91    
Minimum Humidity 54    
Precipitation  
Precipitation 0.00 in - - ()
Sea Level Pressure  
Sea Level Pressure 29.98 in    
Wind  
Wind Speed 5 mph (SSE)    
Max Wind Speed 14 mph    
Max Gust Speed -    
Visibility 10 miles    
Events      
Averages and records for this station are not official NWS values.
T = Trace of Precipitation, MM = Missing Value Source: NWS Daily Summary

Daily Weather History Graph

Daily Weather History Graph

Search for Another Location

Airport:

Trip Planner

Search our weather history database for the weather conditions in past years. The results will help you decide how hot, cold, wet, or windy it might be!

Date:

Astronomy

Aug. 06, 2013 Rise Set
Actual Time 6:39 AM EDT 8:43 PM EDT
Civil Twilight 6:10 AM EDT 9:13 PM EDT
Nautical Twilight 5:33 AM EDT 9:49 PM EDT
Astronomical Twilight 4:54 AM EDT 10:28 PM EDT
Moon 6:30 AM EDT (8/6) 8:18 PM EDT (8/6)
Length of Visible Light 15h 03m
Length of Day
14h 03m
Waning Crescent, 0% of the Moon is Illuminated
Aug 6
Waning Crescent
Aug 6
New
Aug 14
First Quarter
Aug 20
Full
Aug 28
Last Quarter

Hourly Weather History & Observations

Time (EDT) Temp. Heat Index Dew Point Humidity Pressure Visibility Wind Dir Wind Speed Gust Speed Precip Events Conditions
12:58 AM 64.0 °F - 60.6 °F 89% 30.01 in 10.0 mi ESE 3.5 mph - N/A   Clear
1:58 AM 63.0 °F - 59.7 °F 89% 30.00 in 10.0 mi Calm Calm - N/A   Clear
2:58 AM 61.7 °F - 59.2 °F 91% 29.98 in 10.0 mi SSE 3.5 mph - N/A   Clear
3:58 AM 63.0 °F - 58.5 °F 85% 29.99 in 10.0 mi Calm Calm - N/A   Clear
4:58 AM 61.7 °F - 57.2 °F 85% 29.98 in 10.0 mi ESE 2.3 mph - N/A   Clear
5:58 AM 62.6 °F - 56.8 °F 81% 29.97 in 10.0 mi ESE 2.3 mph - N/A   Mostly Cloudy
6:58 AM 63.0 °F - 56.7 °F 80% 29.99 in 10.0 mi SSE 5.8 mph - N/A   Mostly Cloudy
7:58 AM 65.1 °F - 56.8 °F 75% 30.00 in 10.0 mi SSE 2.3 mph - N/A   Scattered Clouds
8:58 AM 66.9 °F - 57.6 °F 72% 30.01 in 10.0 mi SE 3.5 mph - N/A   Mostly Cloudy
9:58 AM 71.6 °F - 59.0 °F 64% 29.99 in 10.0 mi SE 5.8 mph - N/A   Scattered Clouds
10:55 AM 75.2 °F - 60.8 °F 61% 30.00 in 10.0 mi SSE 9.2 mph - N/A   Clear
11:55 AM 77.0 °F - 60.8 °F 57% 29.98 in 10.0 mi South 13.8 mph - N/A   Clear
12:55 PM 78.8 °F - 62.6 °F 57% 29.98 in 10.0 mi SSE 10.4 mph - N/A   Partly Cloudy
1:04 PM 78.8 °F - 60.8 °F 54% 29.98 in 10.0 mi SSE 10.4 mph - N/A   Light Drizzle
1:05 PM 78.8 °F - 60.8 °F 54% 29.98 in 10.0 mi SSE 10.4 mph - N/A   Scattered Clouds
1:18 PM 78.8 °F - 62.6 °F 57% 29.97 in 10.0 mi SSE 8.1 mph - N/A   Scattered Clouds
1:55 PM 79.7 °F - 62.4 °F 55% 29.97 in 10.0 mi SSE 9.2 mph - N/A   Mostly Cloudy
1:58 PM 79.7 °F - 62.4 °F 55% 29.98 in 10.0 mi South 10.4 mph - 0.00 in   Mostly Cloudy
2:58 PM 79.0 °F - 63.5 °F 59% 29.97 in 10.0 mi SSE 11.5 mph - N/A   Mostly Cloudy
3:58 PM 80.1 °F 81.8 °F 64.4 °F 59% 29.97 in 10.0 mi South 11.5 mph - N/A   Partly Cloudy
4:58 PM 81.0 °F 83.2 °F 66.4 °F 61% 29.95 in 10.0 mi SSE 12.7 mph - N/A   Mostly Cloudy
5:58 PM 78.6 °F - 66.2 °F 66% 29.95 in 10.0 mi SSE 11.5 mph - N/A   Mostly Cloudy
6:58 PM 79.2 °F - 66.2 °F 64% 29.95 in 10.0 mi SE 8.1 mph - N/A   Partly Cloudy
7:58 PM 77.5 °F - 66.9 °F 70% 29.95 in 10.0 mi SSE 8.1 mph - N/A   Scattered Clouds
8:58 PM 76.1 °F - 66.6 °F 72% 29.95 in 10.0 mi SSE 5.8 mph - N/A   Scattered Clouds
9:58 PM 74.1 °F - 66.7 °F 78% 29.95 in 10.0 mi East 4.6 mph - N/A   Clear
10:58 PM 72.5 °F - 66.7 °F 82% 29.95 in 10.0 mi SE 5.8 mph - N/A   Partly Cloudy
11:58 PM 71.6 °F - 66.9 °F 85% 29.95 in 10.0 mi SSE 5.8 mph - N/A   Partly Cloudy